Starlink 6212

operational
NORAD ID: 57330 Int'l Des: 2023-099 Owner: SPXS Country: US Constellation: starlink
LEOCIRCULAR

Über Starlink 6212

Beschreibung wird geladen...

Live-Position

3D-Globus wird geladen...

Nächste Überflüge

Höhenverlauf

Altitude vs Time

uPlot chart will show altitude changes over time

Zweizeiliger Elementsatz

1 57330U 23099C 25258.32410813 .00005452 00000-0 41842-3 0 9993
2 57330 43.0039 122.1556 0000742 273.8836 86.1922 15.02530771119731
Epoch: 15. Sept. 2025 • Age: 17 hours

Aktueller Status

Höhe 571.9 km
Geschwindigkeit 7.58 km/s
Subsatellitenpunkt -43.14°S, 21.1°E
Startdatum 16. Juli 2023
Alter 2.1 years
Typ internet

Technische Details

Klassifizierung Payload
Masse 305.00 kg
Trockenmasse 290.00 kg
Gesamtmasse 305.00 kg
Länge 0.20 m
Durchmesser 2.80 m
Spannweite 9.00 m
Form Box + pan
Hersteller SPXS
Bus-Typ Starlink
Phasenstatus In Orbit
Besitzer/Staat SPXS/US

Große Konstellationen

Loading constellations...